Location: ???????
(55.4362°N, 38.1183°E)
Time: 01:00:43
(UTC+00:00)

NOSS 3-1 (C) - Visible Passes

Search period start: 24 October 2021 00:00
Search period end: 03 November 2021 00:00
Orbit: 720 x 1488 km, 63.4° (Epoch: 22 October)

Date Brightness Start Highest point End Pass type
(mag) Time Alt. Az. Time Alt. Az. Time Alt. Az.
24 Oct 4.5 14:40:43 10° SSE 14:44:39 21° ESE 14:49:01 10° ENE visible
24 Oct 3.2 16:28:50 10° SW 16:34:21 78° SE 16:37:44 30° NE visible
24 Oct 4.3 18:19:57 10° W 18:25:08 48° NNW 18:25:08 48° NNW visible
24 Oct 5.9 20:11:38 10° WNW 20:12:32 15° WNW 20:12:32 15° WNW visible
25 Oct 3.4 15:43:49 10° SSW 15:49:07 56° SE 15:53:59 17° ENE visible
25 Oct 3.9 17:34:21 10° WSW 17:40:03 57° NNW 17:41:23 48° NNE visible
25 Oct 5.3 19:26:06 10° WNW 19:28:47 26° NW 19:28:47 26° NW visible
26 Oct 3.9 14:59:04 10° S 15:04:03 38° ESE 15:09:53 10° NE visible
26 Oct 3.6 16:48:52 10° WSW 16:54:30 70° NNW 16:57:35 33° NE visible
26 Oct 4.7 18:40:29 10° WNW 18:44:59 39° NW 18:44:59 39° NW visible
26 Oct 6.1 20:31:57 10° NW 20:32:22 12° NW 20:32:22 12° NW visible
27 Oct 3.3 16:03:31 10° SW 16:09:05 89° NW 16:13:43 21° NE visible
27 Oct 4.3 17:54:51 10° W 18:00:37 47° NNW 18:01:07 46° N visible
27 Oct 5.6 19:46:28 10° WNW 19:48:30 21° NW 19:48:30 21° NW visible
28 Oct 3.4 15:18:22 10° SW 15:23:47 68° SE 15:29:49 12° NE visible
28 Oct 4.1 17:09:14 10° W 17:14:56 52° NNW 17:17:13 37° NNE visible
28 Oct 5.0 19:00:58 10° WNW 19:04:36 33° NW 19:04:36 33° NW visible
29 Oct 3.7 14:33:27 10° SSW 14:38:38 47° SE 14:44:46 10° NE visible
29 Oct 3.8 16:23:41 10° WSW 16:29:21 63° NNW 16:33:17 25° NE visible
29 Oct 4.5 18:15:22 10° WNW 18:20:40 43° NNW 18:20:40 43° NNW visible
29 Oct 5.9 20:06:44 10° NW 20:08:04 17° NW 20:08:04 17° NW visible
30 Oct 3.5 15:38:14 10° WSW 15:43:51 78° NW 15:49:20 16° NE visible
30 Oct 4.3 17:29:45 10° W 17:35:33 45° N 17:36:43 41° NNE visible
30 Oct 5.4 19:21:18 10° WNW 19:24:06 27° NW 19:24:06 27° NW visible
31 Oct 3.4 14:52:58 10° SW 14:58:29 80° SE 15:05:09 10° NE visible
31 Oct 4.2 16:44:08 10° W 16:49:51 49° NNW 16:52:45 31° NE visible
31 Oct 4.8 18:35:49 10° WNW 18:40:08 38° NNW 18:40:08 38° NNW visible
31 Oct 6.1 20:26:51 10° NW 20:27:30 13° NW 20:27:30 13° NW visible
01 Nov 3.9 15:58:32 10° WSW 16:04:13 56° NNW 16:08:46 21° NE visible
01 Nov 4.4 17:50:15 10° WNW 17:56:09 44° N 17:56:09 44° N visible
01 Nov 5.6 19:41:30 10° NW 19:43:32 22° NW 19:43:32 22° NW visible
02 Nov 3.7 15:13:01 10° WSW 15:18:40 69° NNW 15:24:46 13° NE visible
02 Nov 4.4 17:04:39 10° WNW 17:10:31 44° N 17:12:09 38° NNE visible
02 Nov 5.1 18:56:06 10° NW 18:59:32 33° NW 18:59:32 33° NW visible
